,,,PA_Meas_PMT16A,,PR_Meas_QMR101_102,,RH_Meas_QMH101,,SR_Meas_QMS101,,TA_Meas_QMH101,,GenWind,,GenWind,
date,time,status,PA,status,PR,status,RH,status,SR,status,TA,status,DirAvg,status,SpdAvg,
2009-03-16, 00:00:04,VALID,1003.39,VALID,0,VALID,93.4919,VALID,0,VALID,23.9548,VALID,284,VALID,0.345313,
2009-03-16, 00:01:04,VALID,1003.33,VALID,0,VALID,93.5072,VALID,0.100563,VALID,23.9548,VALID,329,VALID,0.556641,
2009-03-16, 00:02:04,VALID,1003.35,VALID,0,VALID,93.5072,VALID,0,VALID,23.9761,VALID,344,VALID,0.975,
2009-03-16, 00:03:04,VALID,1003.33,VALID,0,VALID,93.5377,VALID,0,VALID,23.9742,VALID,357,VALID,0.438672,
2009-03-16, 00:04:04,VALID,1003.33,VALID,0,VALID,93.5377,VALID,0.100563,VALID,23.9761,VALID,321,VALID,0.616016,
2009-03-16, 00:05:04,VALID,1003.3,VALID,0,VALID,93.553,VALID,0,VALID,23.953,VALID,320,VALID,0.612891,
2009-03-16, 00:06:04,VALID,1003.31,VALID,0,VALID,93.5606,VALID,0,VALID,23.9937,VALID,8,VALID,0.614844,
2009-03-16, 00:07:04,VALID,1003.31,VALID,0,VALID,93.5606,VALID,0.100563,VALID,23.9937,VALID,345,VALID,0.247266,
2009-03-16, 00:08:04,VALID,1003.3,VALID,0,VALID,93.5453,VALID,0.100563,VALID,23.9937,VALID,335,VALID,0.283203,
2009-03-16, 00:09:04,VALID,1003.27,VALID,0,VALID,93.553,VALID,0,VALID,23.9937,VALID,301,VALID,0.519922,
2009-03-16, 00:10:04,VALID,1003.29,VALID,0,VALID,93.5758,VALID,0.100563,VALID,23.9742,VALID,345,VALID,0.465625,
2009-03-16, 00:11:04,VALID,1003.27,VALID,0,VALID,93.5682,VALID,0,VALID,23.9937,VALID,315,VALID,0.627734,
2009-03-16, 00:12:04,VALID,1003.26,VALID,0,VALID,93.5682,VALID,0,VALID,23.9742,VALID,274,VALID,0.232422,
2009-03-16, 00:13:04,VALID,1003.26,VALID,0,VALID,93.6064,VALID,0.100563,VALID,23.9742,VALID,295,VALID,0.385156,
2009-03-16, 00:14:04,VALID,1003.23,VALID,0,VALID,93.6216,VALID,0.100563,VALID,23.9724,VALID,318,VALID,0.251172,
2009-03-16, 00:15:04,VALID,1003.22,VALID,0,VALID,93.6064,VALID,0,VALID,23.9955,VALID,278,VALID,0.636719,
2009-03-16, 00:16:04,VALID,1003.23,VALID,0,VALID,93.6064,VALID,0,VALID,24.015,VALID,281,VALID,0.4,
2009-03-16, 00:17:04,VALID,1003.19,VALID,0,VALID,93.6064,VALID,0,VALID,24.015,VALID,331,VALID,0.611719,
2009-03-16, 00:18:04,VALID,1003.22,VALID,0,VALID,93.5758,VALID,0,VALID,23.9937,VALID,302,VALID,0.776953,
2009-03-16, 00:19:04,VALID,1003.21,VALID,0,VALID,93.553,VALID,0,VALID,23.9937,VALID,271,VALID,0.638281,
2009-03-16, 00:20:04,VALID,1003.18,VALID,0,VALID,93.553,VALID,0.100563,VALID,23.9937,VALID,277,VALID,0.632422,
2009-03-16, 00:21:04,VALID,1003.17,VALID,0,VALID,93.5224,VALID,0,VALID,24.0132,VALID,262,VALID,0.253906,
2009-03-16, 00:22:04,VALID,1003.12,VALID,0,VALID,93.5072,VALID,0,VALID,23.9937,VALID,340,VALID,0.833594,
2009-03-16, 00:23:04,VALID,1003.12,VALID,0,VALID,93.4538,VALID,0.100563,VALID,23.9742,VALID,9,VALID,0.509766,
2009-03-16, 00:24:04,VALID,1003.08,VALID,0,VALID,93.4385,VALID,0.100563,VALID,24.015,VALID,360,VALID,0.699609,
2009-03-16, 00:25:04,VALID,1003.1,VALID,0,VALID,93.3928,VALID,0.100563,VALID,23.9955,VALID,359,VALID,0.512891,
2009-03-16, 00:26:04,VALID,1003.09,VALID,0,VALID,93.3622,VALID,0,VALID,23.9548,VALID,356,VALID,0.995313,
2009-03-16, 00:27:04,VALID,1003.06,VALID,0,VALID,93.3699,VALID,0,VALID,23.9548,VALID,7,VALID,0.865234,
2009-03-16, 00:28:04,VALID,1003.05,VALID,0,VALID,93.3546,VALID,0.100563,VALID,23.9742,VALID,295,VALID,0.400781,
2009-03-16, 00:29:04,VALID,1003.04,VALID,0,VALID,93.3699,VALID,0,VALID,23.9742,VALID,333,VALID,0.694531,
2009-03-16, 00:30:04,VALID,1003,VALID,0,VALID,93.3928,VALID,0,VALID,23.9955,VALID,297,VALID,0.520312,
2009-03-16, 00:31:04,VALID,1002.97,VALID,0,VALID,93.3546,VALID,0,VALID,23.9937,VALID,323,VALID,1.09141,
2009-03-16, 00:32:04,VALID,1002.96,VALID,0,VALID,93.3317,VALID,0,VALID,24.015,VALID,353,VALID,0.892578,
2009-03-16, 00:33:04,VALID,1002.92,VALID,0,VALID,93.2936,VALID,0.100563,VALID,24.0326,VALID,273,VALID,0.468359,
2009-03-16, 00:34:04,VALID,1002.91,VALID,0,VALID,93.2783,VALID,0,VALID,24.0132,VALID,357,VALID,0.472656,
2009-03-16, 00:35:04,VALID,1002.9,VALID,0,VALID,93.2249,VALID,0,VALID,24.0539,VALID,345,VALID,0.892187,
2009-03-16, 00:36:04,VALID,1002.89,VALID,0,VALID,93.2402,VALID,0.100563,VALID,24.0521,VALID,358,VALID,0.557031,
2009-03-16, 00:37:04,VALID,1002.88,VALID,0,VALID,93.2249,VALID,0.100563,VALID,24.0308,VALID,3,VALID,0.891016,
2009-03-16, 00:38:04,VALID,1002.87,VALID,0,VALID,93.1868,VALID,0,VALID,24.0929,VALID,353,VALID,0.785156,
2009-03-16, 00:39:04,VALID,1002.85,VALID,0,VALID,93.141,VALID,0,VALID,24.1123,VALID,351,VALID,0.636719,
2009-03-16, 00:40:04,VALID,1002.83,VALID,0,VALID,93.1105,VALID,0.100563,VALID,24.1105,VALID,1,VALID,1.33047,
2009-03-16, 00:41:04,VALID,1002.84,VALID,0,VALID,93.0418,VALID,0,VALID,24.1087,VALID,340,VALID,0.900391,
2009-03-16, 00:42:04,VALID,1002.81,VALID,0,VALID,92.9732,VALID,0,VALID,24.1494,VALID,347,VALID,0.591406,
2009-03-16, 00:43:04,VALID,1002.8,VALID,0,VALID,92.9121,VALID,0.100563,VALID,24.1707,VALID,1,VALID,0.680078,
2009-03-16, 00:44:04,VALID,1002.78,VALID,0,VALID,92.9045,VALID,0,VALID,24.1476,VALID,1,VALID,0.280859,
2009-03-16, 00:45:04,VALID,1002.79,VALID,0,VALID,92.874,VALID,0.100563,VALID,24.1689,VALID,355,VALID,0.292188,
2009-03-16, 00:46:04,VALID,1002.79,VALID,0,VALID,92.8511,VALID,0,VALID,24.1884,VALID,336,VALID,0.466797,
2009-03-16, 00:47:04,VALID,1002.77,VALID,0,VALID,92.8435,VALID,0.100563,VALID,24.1884,VALID,345,VALID,0.375781,
2009-03-16, 00:48:04,VALID,1002.78,VALID,0,VALID,92.8206,VALID,0.100563,VALID,24.1884,VALID,329,VALID,1.06914,
2009-03-16, 00:49:04,VALID,1002.8,VALID,0,VALID,92.7977,VALID,0,VALID,24.2291,VALID,355,VALID,0.891016,
2009-03-16, 00:50:04,VALID,1002.79,VALID,0,VALID,92.7748,VALID,0,VALID,24.2273,VALID,324,VALID,0.683203,
2009-03-16, 00:51:04,VALID,1002.78,VALID,0,VALID,92.7138,VALID,0,VALID,24.2486,VALID,22,VALID,1.01172,
2009-03-16, 00:52:04,VALID,1002.8,VALID,0,VALID,92.607,VALID,0.100563,VALID,24.2273,VALID,359,VALID,1.50469,
2009-03-16, 00:53:04,VALID,1002.76,VALID,0,VALID,92.607,VALID,0,VALID,24.2273,VALID,10,VALID,0.496875,
2009-03-16, 00:54:04,VALID,1002.75,VALID,0,VALID,92.5612,VALID,0,VALID,24.2486,VALID,343,VALID,0.994922,
2009-03-16, 00:55:04,VALID,1002.74,VALID,0,VALID,92.5231,VALID,0,VALID,24.2273,VALID,12,VALID,1.25469,
2009-03-16, 00:56:04,VALID,1002.67,VALID,0,VALID,92.4468,VALID,0.100563,VALID,24.2486,VALID,347,VALID,1.84297,
2009-03-16, 00:57:04,VALID,1002.67,VALID,0,VALID,92.3857,VALID,0,VALID,24.2078,VALID,287,VALID,0.6125,
2009-03-16, 00:58:04,VALID,1002.71,VALID,0,VALID,92.3934,VALID,0,VALID,24.2273,VALID,341,VALID,0.509766,
2009-03-16, 00:59:04,VALID,1002.66,VALID,0,VALID,92.3934,VALID,0.100563,VALID,24.2273,VALID,337,VALID,0.55,
2009-03-16, 01:00:04,VALID,1002.66,VALID,0,VALID,92.3095,VALID,0.100563,VALID,24.2468,VALID,335,VALID,1.00859,
2009-03-16, 01:01:04,VALID,1002.62,VALID,0,VALID,92.2713,VALID,0,VALID,24.2486,VALID,355,VALID,0.934766,
2009-03-16, 01:02:04,VALID,1002.64,VALID,0,VALID,92.195,VALID,0,VALID,24.2273,VALID,332,VALID,1.37852,
2009-03-16, 01:03:04,VALID,1002.62,VALID,0,VALID,92.2027,VALID,0,VALID,24.2681,VALID,349,VALID,0.741016,
2009-03-16, 01:04:04,VALID,1002.58,VALID,0,VALID,92.0882,VALID,0,VALID,24.2273,VALID,342,VALID,0.898828,
2009-03-16, 01:05:04,VALID,1002.6,VALID,0,VALID,91.8441,VALID,0,VALID,24.2078,VALID,345,VALID,1.27773,
2009-03-16, 01:06:04,VALID,1002.62,VALID,0,VALID,91.6839,VALID,0,VALID,24.2078,VALID,336,VALID,1.19961,
2009-03-16, 01:07:04,VALID,1002.62,VALID,0,VALID,91.5313,VALID,0.100563,VALID,24.2078,VALID,343,VALID,0.934375,
2009-03-16, 01:08:04,VALID,1002.61,VALID,0,VALID,91.3635,VALID,0,VALID,24.2078,VALID,5,VALID,0.694531,
2009-03-16, 01:09:04,VALID,1002.63,VALID,0,VALID,91.1346,VALID,0.100563,VALID,24.2097,VALID,331,VALID,1.05234,
2009-03-16, 01:10:04,VALID,1002.6,VALID,0,VALID,91.1193,VALID,0,VALID,24.2504,VALID,353,VALID,0.933984,
2009-03-16, 01:11:04,VALID,1002.6,VALID,0,VALID,91.0125,VALID,0,VALID,24.1671,VALID,2,VALID,1.00078,
2009-03-16, 01:12:04,VALID,1002.6,VALID,0,VALID,90.921,VALID,0,VALID,24.1884,VALID,339,VALID,1.07305,
2009-03-16, 01:13:04,VALID,1002.58,VALID,0,VALID,90.8752,VALID,0,VALID,24.1902,VALID,353,VALID,1.04883,
2009-03-16, 01:14:04,VALID,1002.6,VALID,0,VALID,90.9515,VALID,0.100563,VALID,24.1689,VALID,262,VALID,0.385156,
2009-03-16, 01:15:04,VALID,1002.6,VALID,0,VALID,90.9897,VALID,0.100563,VALID,24.1689,VALID,341,VALID,0.263281,
2009-03-16, 01:16:04,VALID,1002.58,VALID,0,VALID,90.8905,VALID,0.100563,VALID,24.1494,VALID,349,VALID,1.34219,
2009-03-16, 01:17:04,VALID,1002.6,VALID,0,VALID,90.9668,VALID,0.100563,VALID,24.1689,VALID,316,VALID,0.185937,
2009-03-16, 01:18:04,VALID,1002.61,VALID,0,VALID,90.9744,VALID,0.100563,VALID,24.1494,VALID,349,VALID,1.39375,
2009-03-16, 01:19:04,VALID,1002.61,VALID,0,VALID,90.9973,VALID,0,VALID,24.13,VALID,321,VALID,0.787109,
2009-03-16, 01:20:04,VALID,1002.6,VALID,0,VALID,90.9897,VALID,0.100563,VALID,24.13,VALID,345,VALID,0.944922,
2009-03-16, 01:21:04,VALID,1002.6,VALID,0,VALID,91.0049,VALID,0,VALID,24.1318,VALID,356,VALID,0.810938,
2009-03-16, 01:22:04,VALID,1002.62,VALID,0,VALID,91.0507,VALID,0.100563,VALID,24.1105,VALID,357,VALID,0.720703,
2009-03-16, 01:23:04,VALID,1002.62,VALID,0,VALID,90.9897,VALID,0,VALID,24.091,VALID,352,VALID,1.53281,
2009-03-16, 01:24:04,VALID,1002.66,VALID,0,VALID,91.0354,VALID,0.100563,VALID,24.091,VALID,5,VALID,0.949609,
2009-03-16, 01:25:04,VALID,1002.68,VALID,0,VALID,91.0812,VALID,0.100563,VALID,24.091,VALID,344,VALID,0.175,
2009-03-16, 01:26:04,VALID,1002.68,VALID,0,VALID,91.0812,VALID,0.100563,VALID,24.091,VALID,341,VALID,0.588281,
2009-03-16, 01:27:04,VALID,1002.7,VALID,0,VALID,90.982,VALID,0.100563,VALID,24.0697,VALID,352,VALID,1.61484,
2009-03-16, 01:28:04,VALID,1002.69,VALID,0,VALID,90.9897,VALID,0.100563,VALID,24.1105,VALID,338,VALID,0.746094,
2009-03-16, 01:29:04,VALID,1002.69,VALID,0,VALID,90.9515,VALID,0,VALID,24.0697,VALID,352,VALID,1.05742,
2009-03-16, 01:30:04,VALID,1002.68,VALID,0,VALID,91.0125,VALID,0.100563,VALID,24.091,VALID,341,VALID,0.789063,
2009-03-16, 01:31:04,VALID,1002.68,VALID,0,VALID,91.0125,VALID,0.100563,VALID,24.091,VALID,4,VALID,0.610156,
2009-03-16, 01:32:04,VALID,1002.65,VALID,0,VALID,90.982,VALID,0,VALID,24.091,VALID,345,VALID,1.03906,
2009-03-16, 01:33:04,VALID,1002.66,VALID,0,VALID,90.9897,VALID,0.100563,VALID,24.0716,VALID,350,VALID,0.957031,
2009-03-16, 01:34:04,VALID,1002.68,VALID,0,VALID,90.9668,VALID,0.100563,VALID,24.091,VALID,352,VALID,0.899219,
2009-03-16, 01:35:04,VALID,1002.65,VALID,0,VALID,90.9973,VALID,0.100563,VALID,24.0697,VALID,330,VALID,0.886719,
2009-03-16, 01:36:04,VALID,1002.65,VALID,0,VALID,90.9973,VALID,0.100563,VALID,24.091,VALID,328,VALID,0.445703,
2009-03-16, 01:37:04,VALID,1002.67,VALID,0,VALID,91.0507,VALID,0.100563,VALID,24.1105,VALID,354,VALID,0.828125,
2009-03-16, 01:38:04,VALID,1002.62,VALID,0,VALID,91.0583,VALID,0.100563,VALID,24.1105,VALID,4,VALID,0.642578,
2009-03-16, 01:39:04,VALID,1002.63,VALID,0,VALID,91.0736,VALID,0.100563,VALID,24.1318,VALID,267,VALID,0.450391,
2009-03-16, 01:40:05,VALID,1002.6,VALID,0,VALID,91.1193,VALID,0.100563,VALID,24.13,VALID,322,VALID,0.878516,
2009-03-16, 01:41:05,VALID,1002.59,VALID,0,VALID,91.1575,VALID,0,VALID,24.1318,VALID,323,VALID,0.951563,
2009-03-16, 01:42:05,VALID,1002.63,VALID,0,VALID,91.1193,VALID,0,VALID,24.1318,VALID,351,VALID,0.716797,
2009-03-16, 01:43:05,VALID,1002.64,VALID,0,VALID,91.1041,VALID,0,VALID,24.1707,VALID,357,VALID,0.810156,
2009-03-16, 01:44:05,VALID,1002.64,VALID,0,VALID,91.0583,VALID,0.100563,VALID,24.1707,VALID,340,VALID,0.694531,
2009-03-16, 01:45:05,VALID,1002.64,VALID,0,VALID,91.0049,VALID,0,VALID,24.1689,VALID,348,VALID,0.789063,
2009-03-16, 01:46:05,VALID,1002.61,VALID,0,VALID,90.9515,VALID,0,VALID,24.1902,VALID,9,VALID,0.707812,
2009-03-16, 01:47:05,VALID,1002.62,VALID,0,VALID,90.9515,VALID,0,VALID,24.2097,VALID,356,VALID,0.745703,
2009-03-16, 01:48:05,VALID,1002.57,VALID,0,VALID,90.9897,VALID,0,VALID,24.1689,VALID,2,VALID,0.709766,
2009-03-16, 01:49:05,VALID,1002.54,VALID,0,VALID,90.9744,VALID,0,VALID,24.1494,VALID,356,VALID,0.575781,
2009-03-16, 01:50:05,VALID,1002.53,VALID,0,VALID,90.7837,VALID,0,VALID,24.1726,VALID,348,VALID,0.819922,
2009-03-16, 01:51:05,VALID,1002.52,VALID,0,VALID,90.6158,VALID,0,VALID,24.13,VALID,351,VALID,0.686328,
2009-03-16, 01:52:05,VALID,1002.51,VALID,0,VALID,90.3946,VALID,0,VALID,24.1707,VALID,343,VALID,0.881641,
2009-03-16, 01:53:05,VALID,1002.49,VALID,0,VALID,90.3641,VALID,0,VALID,24.1689,VALID,347,VALID,0.644141,
2009-03-16, 01:54:05,VALID,1002.5,VALID,0,VALID,90.2268,VALID,0,VALID,24.1902,VALID,355,VALID,0.478516,
2009-03-16, 01:55:05,VALID,1002.46,VALID,0,VALID,90.3031,VALID,0,VALID,24.1689,VALID,360,VALID,0.150781,
2009-03-16, 01:56:05,VALID,1002.47,VALID,0,VALID,89.647,VALID,0,VALID,24.1513,VALID,352,VALID,0.884766,
2009-03-16, 01:57:05,VALID,1002.4,VALID,0,VALID,89.5478,VALID,0,VALID,24.1726,VALID,348,VALID,0.340234,
2009-03-16, 01:58:05,VALID,1002.39,VALID,0,VALID,88.9909,VALID,0,VALID,24.1513,VALID,350,VALID,1.18984,
2009-03-16, 01:59:05,VALID,1002.34,VALID,0,VALID,88.5103,VALID,0,VALID,24.1707,VALID,358,VALID,0.794922,
2009-03-16, 02:00:05,VALID,1002.34,VALID,0,VALID,87.8084,VALID,0,VALID,24.2097,VALID,358,VALID,0.992969,
2009-03-16, 02:01:05,VALID,1002.3,VALID,0,VALID,87.6406,VALID,0,VALID,24.2894,VALID,175,VALID,0.440625,
2009-03-16, 02:02:05,VALID,1002.26,VALID,0,VALID,87.343,VALID,0,VALID,24.2468,VALID,353,VALID,0.9625,
2009-03-16, 02:03:05,VALID,1002.23,VALID,0,VALID,87.0608,VALID,0,VALID,24.2875,VALID,2,VALID,0.801172,
2009-03-16, 02:04:05,VALID,1002.21,VALID,0,VALID,86.9692,VALID,0,VALID,24.307,VALID,350,VALID,0.744141,
2009-03-16, 02:05:05,VALID,1002.21,VALID,0,VALID,86.8929,VALID,0,VALID,24.2857,VALID,357,VALID,0.414063,
2009-03-16, 02:06:05,VALID,1002.19,VALID,0,VALID,86.687,VALID,0,VALID,24.307,VALID,292,VALID,0.925,
2009-03-16, 02:07:05,VALID,1002.2,VALID,0,VALID,86.275,VALID,0,VALID,24.2857,VALID,346,VALID,1.36328,
2009-03-16, 02:08:05,VALID,1002.19,VALID,0,VALID,86.6031,VALID,0,VALID,24.3459,VALID,338,VALID,0.6625,
2009-03-16, 02:09:05,VALID,1002.2,VALID,0,VALID,86.6946,VALID,0,VALID,24.3265,VALID,359,VALID,0.786719,
2009-03-16, 02:10:05,VALID,1002.19,VALID,0,VALID,86.6946,VALID,0,VALID,24.307,VALID,345,VALID,0.949219,
2009-03-16, 02:11:05,VALID,1002.17,VALID,0,VALID,86.3971,VALID,0.100563,VALID,24.2875,VALID,353,VALID,1.16406,
2009-03-16, 02:12:05,VALID,1002.18,VALID,0,VALID,86.4352,VALID,0,VALID,24.2662,VALID,347,VALID,0.872656,
2009-03-16, 02:13:05,VALID,1002.16,VALID,0,VALID,86.2826,VALID,0,VALID,24.2875,VALID,340,VALID,1.0875,
2009-03-16, 02:14:05,VALID,1002.16,VALID,0,VALID,86.3132,VALID,0.100563,VALID,24.2857,VALID,346,VALID,0.825,
2009-03-16, 02:15:05,VALID,1002.14,VALID,0,VALID,86.4657,VALID,0.100563,VALID,24.307,VALID,346,VALID,0.823047,
2009-03-16, 02:16:05,VALID,1002.12,VALID,0,VALID,86.6259,VALID,0.100563,VALID,24.307,VALID,343,VALID,0.745703,
2009-03-16, 02:17:05,VALID,1002.12,VALID,0,VALID,86.7709,VALID,0,VALID,24.307,VALID,305,VALID,0.773047,
2009-03-16, 02:18:05,VALID,1002.17,VALID,0,VALID,86.7556,VALID,0,VALID,24.2662,VALID,11,VALID,0.517187,
2009-03-16, 02:19:05,VALID,1002.15,VALID,0,VALID,86.6946,VALID,0,VALID,24.2681,VALID,321,VALID,1.00937,
2009-03-16, 02:20:05,VALID,1002.16,VALID,0,VALID,86.5573,VALID,0,VALID,24.2875,VALID,352,VALID,0.950781,
2009-03-16, 02:21:05,VALID,1002.18,VALID,0,VALID,86.809,VALID,0,VALID,24.2875,VALID,347,VALID,0.196875,
2009-03-16, 02:22:05,VALID,1002.29,VALID,0,VALID,87.2515,VALID,0,VALID,24.2468,VALID,194,VALID,1.35391,
2009-03-16, 02:23:05,VALID,1002.31,VALID,0,VALID,87.6787,VALID,0,VALID,24.2699,VALID,162,VALID,1.51797,
2009-03-16, 02:24:05,VALID,1002.28,VALID,0,VALID,88.2127,VALID,0,VALID,24.2078,VALID,224,VALID,1.33984,
2009-03-16, 02:25:05,VALID,1002.37,VALID,0,VALID,88.4721,VALID,0,VALID,24.2875,VALID,196,VALID,1.24297,
2009-03-16, 02:26:05,VALID,1002.47,VALID,0,VALID,89.3189,VALID,0,VALID,24.307,VALID,209,VALID,1.65234,
2009-03-16, 02:27:05,VALID,1002.44,VALID,0,VALID,89.5554,VALID,0,VALID,24.307,VALID,254,VALID,1.20273,
2009-03-16, 02:28:05,VALID,1002.46,VALID,0,VALID,89.8072,VALID,0,VALID,24.307,VALID,216,VALID,0.503906,
2009-03-16, 02:29:05,VALID,1002.49,VALID,0,VALID,90.0589,VALID,0,VALID,24.2875,VALID,279,VALID,0.573047,
2009-03-16, 02:30:05,VALID,1002.53,VALID,0,VALID,90.593,VALID,0,VALID,24.2875,VALID,260,VALID,2.25781,
2009-03-16, 02:31:05,VALID,1002.58,VALID,1,VALID,91.2948,VALID,0,VALID,24.2291,VALID,161,VALID,1.50898,
2009-03-16, 02:32:05,VALID,1002.53,VALID,1.5,VALID,91.7373,VALID,0,VALID,24.1123,VALID,234,VALID,1.72773,
2009-03-16, 02:33:05,VALID,1002.58,VALID,0.5,VALID,92.1416,VALID,0,VALID,23.9566,VALID,290,VALID,1.05508,
2009-03-16, 02:34:05,VALID,1002.55,VALID,0.5,VALID,92.5231,VALID,0,VALID,23.8203,VALID,265,VALID,0.596484,
2009-03-16, 02:35:05,VALID,1002.52,VALID,0.5,VALID,92.9274,VALID,0,VALID,23.7443,VALID,300,VALID,1.09648,
2009-03-16, 02:36:05,VALID,1002.57,VALID,1,VALID,93.2402,VALID,0,VALID,23.6859,VALID,254,VALID,0.689453,
2009-03-16, 02:37:05,VALID,1002.56,VALID,1,VALID,93.5224,VALID,0,VALID,23.6452,VALID,319,VALID,0.840625,
2009-03-16, 02:38:05,VALID,1002.53,VALID,1.5,VALID,93.7742,VALID,0,VALID,23.6062,VALID,306,VALID,1.51641,
2009-03-16, 02:39:05,VALID,1002.52,VALID,0.5,VALID,94.0565,VALID,0,VALID,23.6257,VALID,284,VALID,1.17383,
2009-03-16, 02:40:05,VALID,1002.53,VALID,1,VALID,94.2167,VALID,0,VALID,23.6257,VALID,302,VALID,0.909766,
2009-03-16, 02:41:05,VALID,1002.5,VALID,0.5,VALID,94.354,VALID,0.100563,VALID,23.6434,VALID,216,VALID,0.535156,
2009-03-16, 02:42:05,VALID,1002.52,VALID,0.5,VALID,94.4608,VALID,0.100563,VALID,23.6841,VALID,279,VALID,1.06953,
2009-03-16, 02:43:05,VALID,1002.49,VALID,0.5,VALID,94.5142,VALID,0.100563,VALID,23.6823,VALID,207,VALID,1.04062,
2009-03-16, 02:44:05,VALID,1002.49,VALID,0.5,VALID,94.6515,VALID,0.100563,VALID,23.7425,VALID,223,VALID,1.40352,
2009-03-16, 02:45:05,VALID,1002.55,VALID,0.5,VALID,94.7278,VALID,0,VALID,23.7601,VALID,278,VALID,1.27891,
2009-03-16, 02:46:05,VALID,1002.5,VALID,0,VALID,94.766,VALID,0.100563,VALID,23.7796,VALID,287,VALID,1.56562,
2009-03-16, 02:47:05,VALID,1002.55,VALID,0.5,VALID,94.766,VALID,0.100563,VALID,23.7796,VALID,124,VALID,1.22852,
2009-03-16, 02:48:05,VALID,1002.56,VALID,0.5,VALID,94.7431,VALID,0.100563,VALID,23.7601,VALID,229,VALID,0.790625,
2009-03-16, 02:49:05,VALID,1002.59,VALID,0.5,VALID,94.7507,VALID,0.100563,VALID,23.7407,VALID,283,VALID,0.5625,
2009-03-16, 02:50:05,VALID,1002.64,VALID,0,VALID,94.8117,VALID,0,VALID,23.7814,VALID,256,VALID,1.13164,
2009-03-16, 02:51:05,VALID,1002.6,VALID,1,VALID,94.8422,VALID,0,VALID,23.7601,VALID,251,VALID,1.63789,
2009-03-16, 02:52:05,VALID,1002.62,VALID,0.5,VALID,94.888,VALID,0,VALID,23.8009,VALID,295,VALID,2.30547,
2009-03-16, 02:53:05,VALID,1002.64,VALID,0.5,VALID,94.8728,VALID,0.100563,VALID,23.7796,VALID,297,VALID,1.55664,
2009-03-16, 02:54:05,VALID,1002.6,VALID,1,VALID,94.8804,VALID,0,VALID,23.7814,VALID,296,VALID,0.319531,
2009-03-16, 02:55:05,VALID,1002.6,VALID,0.5,VALID,94.8956,VALID,0.100563,VALID,23.7601,VALID,287,VALID,1.13867,
2009-03-16, 02:56:05,VALID,1002.6,VALID,0.5,VALID,94.8041,VALID,0.100563,VALID,23.723,VALID,308,VALID,1.62344,
2009-03-16, 02:57:05,VALID,1002.67,VALID,0.5,VALID,94.8117,VALID,0,VALID,23.6628,VALID,292,VALID,2.08047,
2009-03-16, 02:58:05,VALID,1002.67,VALID,0.5,VALID,94.827,VALID,0,VALID,23.6044,VALID,298,VALID,1.04297,
2009-03-16, 02:59:05,VALID,1002.7,VALID,0.5,VALID,94.766,VALID,0,VALID,23.546,VALID,308,VALID,2.12109,
2009-03-16, 03:00:05,VALID,1002.68,VALID,0,VALID,94.8499,VALID,0.100563,VALID,23.5284,VALID,336,VALID,1.22422,
2009-03-16, 03:01:05,VALID,1002.69,VALID,0.5,VALID,94.8804,VALID,0.100563,VALID,23.4877,VALID,309,VALID,1.3125,
2009-03-16, 03:02:05,VALID,1002.7,VALID,0,VALID,94.9338,VALID,0.100563,VALID,23.4487,VALID,276,VALID,1.2707,
2009-03-16, 03:03:05,VALID,1002.69,VALID,0.5,VALID,94.9796,VALID,0.100563,VALID,23.4293,VALID,2,VALID,1.05117,
2009-03-16, 03:04:05,VALID,1002.69,VALID,0,VALID,95.0177,VALID,0.100563,VALID,23.4293,VALID,299,VALID,1.00625,
2009-03-16, 03:05:05,VALID,1002.73,VALID,0.5,VALID,95.033,VALID,0,VALID,23.4293,VALID,301,VALID,0.941406,
2009-03-16, 03:06:05,VALID,1002.75,VALID,0,VALID,95.0482,VALID,0.100563,VALID,23.4098,VALID,284,VALID,1.11055,
2009-03-16, 03:07:05,VALID,1002.7,VALID,0,VALID,95.0558,VALID,0.100563,VALID,23.4098,VALID,338,VALID,1.07891,
2009-03-16, 03:08:05,VALID,1002.72,VALID,0.5,VALID,95.094,VALID,0.100563,VALID,23.4098,VALID,316,VALID,0.639063,
2009-03-16, 03:09:05,VALID,1002.67,VALID,0,VALID,95.0864,VALID,0.100563,VALID,23.3886,VALID,271,VALID,0.927344,
2009-03-16, 03:10:05,VALID,1002.68,VALID,0,VALID,95.0711,VALID,0.100563,VALID,23.3904,VALID,11,VALID,1.14531,
2009-03-16, 03:11:05,VALID,1002.63,VALID,0,VALID,95.0558,VALID,0.100563,VALID,23.3709,VALID,270,VALID,1.36367,
2009-03-16, 03:12:05,VALID,1002.7,VALID,0.5,VALID,95.0024,VALID,0.100563,VALID,23.3143,VALID,306,VALID,1.78906,
2009-03-16, 03:13:05,VALID,1002.72,VALID,0,VALID,95.033,VALID,0.100563,VALID,23.2736,VALID,300,VALID,1.32852,
2009-03-16, 03:14:05,VALID,1002.71,VALID,0.5,VALID,95.0406,VALID,0.100563,VALID,23.2347,VALID,314,VALID,1.275,
2009-03-16, 03:15:05,VALID,1002.67,VALID,0,VALID,95.0253,VALID,0.100563,VALID,23.1745,VALID,293,VALID,2.02539,
2009-03-16, 03:16:05,VALID,1002.68,VALID,0.5,VALID,95.0558,VALID,0.100563,VALID,23.1374,VALID,293,VALID,2.05547,
2009-03-16, 03:17:05,VALID,1002.65,VALID,0,VALID,95.1245,VALID,0.100563,VALID,23.1374,VALID,294,VALID,1.19727,
2009-03-16, 03:18:05,VALID,1002.65,VALID,0,VALID,95.1321,VALID,0.100563,VALID,23.0772,VALID,298,VALID,0.869531,
2009-03-16, 03:19:05,VALID,1002.67,VALID,0,VALID,95.1093,VALID,0.100563,VALID,23.079,VALID,301,VALID,0.819141,
2009-03-16, 03:20:05,VALID,1002.66,VALID,0,VALID,95.1398,VALID,0.100563,VALID,23.079,VALID,292,VALID,0.266797,
2009-03-16, 03:21:05,VALID,1002.7,VALID,0,VALID,95.1703,VALID,0.100563,VALID,23.0595,VALID,280,VALID,0.335156,
2009-03-16, 03:22:05,VALID,1002.73,VALID,0,VALID,95.1932,VALID,0.100563,VALID,23.0595,VALID,280,VALID,0.172656,
2009-03-16, 03:23:05,VALID,1002.77,VALID,0.5,VALID,95.2084,VALID,0.100563,VALID,23.0595,VALID,280,VALID,0.176953,
2009-03-16, 03:24:05,VALID,1002.75,VALID,0,VALID,95.2313,VALID,0,VALID,23.0401,VALID,280,VALID,0.145703,
2009-03-16, 03:25:05,VALID,1002.8,VALID,0,VALID,95.2313,VALID,0.100563,VALID,23.0401,VALID,241,VALID,0.360547,
2009-03-16, 03:26:05,VALID,1002.82,VALID,0,VALID,95.2466,VALID,0,VALID,23.0224,VALID,254,VALID,0.470313,
2009-03-16, 03:27:05,VALID,1002.83,VALID,0.5,VALID,95.2389,VALID,0,VALID,23.0224,VALID,296,VALID,0.619531,
2009-03-16, 03:28:05,VALID,1002.8,VALID,0,VALID,95.2695,VALID,0,VALID,23.0241,VALID,287,VALID,0.625781,
2009-03-16, 03:29:05,VALID,1002.8,VALID,0,VALID,95.2618,VALID,0,VALID,23.0224,VALID,288,VALID,0.479688,
2009-03-16, 03:30:05,VALID,1002.81,VALID,0.5,VALID,95.2923,VALID,0,VALID,23.0029,VALID,284,VALID,0.796484,
2009-03-16, 03:31:05,VALID,1002.76,VALID,0.5,VALID,95.2923,VALID,0,VALID,22.9834,VALID,284,VALID,0.354297,
2009-03-16, 03:32:05,VALID,1002.78,VALID,0,VALID,95.3152,VALID,0,VALID,23.0029,VALID,304,VALID,0.559375,
2009-03-16, 03:33:05,VALID,1002.74,VALID,0.5,VALID,95.2923,VALID,0,VALID,22.9834,VALID,305,VALID,0.426953,
2009-03-16, 03:34:05,VALID,1002.73,VALID,0.5,VALID,95.3152,VALID,0,VALID,23.0046,VALID,304,VALID,0.0453125,
2009-03-16, 03:35:05,VALID,1002.74,VALID,0,VALID,95.3229,VALID,0,VALID,23.0029,VALID,306,VALID,0.413281,
2009-03-16, 03:36:05,VALID,1002.72,VALID,0.5,VALID,95.3305,VALID,0,VALID,23.0029,VALID,319,VALID,0.535547,
2009-03-16, 03:37:05,VALID,1002.75,VALID,0.5,VALID,95.3229,VALID,0,VALID,22.964,VALID,289,VALID,0.559375,
2009-03-16, 03:38:05,VALID,1002.72,VALID,0,VALID,95.3229,VALID,0,VALID,22.964,VALID,353,VALID,0.980859,
2009-03-16, 03:39:05,VALID,1002.71,VALID,0,VALID,95.3457,VALID,0,VALID,22.9445,VALID,345,VALID,0.372656,